This is the latest recevied weather packets stored in our database for station/object KC0SIQ-13. If no packets are shown the sender has not sent any weather packets the latest 1 day(s).
| Time | Temp. | Humidity | Pressure | Rain* | Wind** | Luminosity | Snow |
|---|---|---|---|---|---|---|---|
| 1778017873 | 0.56° C | 99% | 1011.9 hPa | 1.27 mm | 0 m/s | 55 W/m² | - |
| 1778017571 | 1.11° C | 99% | 1011.7 hPa | 1.27 mm | 0 m/s | 62 W/m² | - |
| 1778017268 | 0.56° C | 99% | 1011.8 hPa | 1.78 mm | 0 m/s | 68 W/m² | - |
| 1778016965 | 1.11° C | 99% | 1011.7 hPa | 3.05 mm | 0 m/s | 81 W/m² | - |
| 1778016662 | 1.11° C | 99% | 1011.8 hPa | 3.05 mm | 0 m/s | 108 W/m² | - |
| 1778016358 | 1.11° C | 99% | 1011.4 hPa | 3.56 mm | 0 m/s | 124 W/m² | - |
| 1778016065 | 1.11° C | 99% | 1011.6 hPa | 3.05 mm | 0 m/s | 119 W/m² | - |
| 1778015752 | 1.11° C | 99% | 1011.8 hPa | 3.05 mm | 0 m/s | 127 W/m² | - |
| 1778015449 | 0.56° C | 99% | 1011.7 hPa | 3.05 mm | 0 m/s | 118 W/m² | - |
| 1778015146 | 0.56° C | 99% | 1011.8 hPa | 1.27 mm | 0 m/s | 95 W/m² | - |
| 1778014843 | 0.56° C | 99% | 1011.7 hPa | 0 mm | 0 m/s | 95 W/m² | - |
| 1778014541 | 0.56° C | 99% | 1011.9 hPa | 0 mm | 0 m/s | 81 W/m² | - |
| 1778014238 | 0.56° C | 99% | 1011.8 hPa | 1.78 mm | 0 m/s | 90 W/m² | - |
| 1778013935 | 0.56° C | 99% | 1011.9 hPa | 1.78 mm | 0 m/s | 75 W/m² | - |
| 1778013632 | 0.56° C | 99% | 1012 hPa | 0 mm | 0 m/s | 77 W/m² | - |
| 1778013329 | 0.56° C | 99% | 1011.9 hPa | 1.27 mm | 0 m/s | 81 W/m² | - |
| 1778013026 | 0.56° C | 99% | 1011.9 hPa | 1.27 mm | 0 m/s | 64 W/m² | - |
| 1778012722 | 1.11° C | 99% | 1012 hPa | 1.78 mm | 0 m/s | 68 W/m² | - |
| 1778012418 | 1.11° C | 99% | 1012.1 hPa | 1.78 mm | 0 m/s | 68 W/m² | - |
| 1778012115 | 0.56° C | 99% | 1012.4 hPa | 1.27 mm | 0 m/s | 63 W/m² | - |
| 1778011813 | 1.11° C | 99% | 1012.3 hPa | 3.05 mm | 0 m/s | 72 W/m² | - |
| 1778011511 | 1.11° C | 99% | 1012.4 hPa | 3.05 mm | 0 m/s | 80 W/m² | - |
| 1778011207 | 1.11° C | 99% | 1012.3 hPa | 1.27 mm | 0 m/s | 96 W/m² | - |
| 1778010903 | 1.11° C | 99% | 1012.5 hPa | 0 mm | 0 m/s | 105 W/m² | - |
| 1778010601 | 0.56° C | 99% | 1012.5 hPa | 1.78 mm | 0 m/s | 91 W/m² | - |
* Rain latest hour (hover to see other rain measurements)
** Current wind speed in m/s (hover to see current wind gust speed)